Theta_e
332 334 330 326 323 321 319 318 316 316 315 315 315 315 315 314 314 313 313 311 309 308 307 304 302 301 300 303 305 306 307 307 305 306 308 310 310 310 312 313 313 313 313
329 333 328 324 322 319 318 316 316 315 315 315 316 316 315 314 314 314 313 311 308 305 303 301 300 302 301 302 303 304 304 306 306 304 306 307 308 310 311 312 312 312 312
331 329 324 322 321 320 317 315 315 314 314 315 316 316 315 314 314 314 313 310 306 304 301 300 300 301 302 302 303 304 304 305 306 305 305 306 307 310 311 312 311 312 311
328 326 322 321 320 318 316 314 313 314 313 314 315 316 315 314 314 313 312 307 305 303 301 301 302 302 303 303 304 305 305 305 305 305 304 304 306 309 309 308 307 310 309
325 322 321 320 318 315 314 314 313 313 313 314 313 313 313 314 311 309 308 305 304 303 301 300 303 306 305 305 306 306 306 304 303 303 303 303 304 304 305 308 306 307 309
324 321 320 318 316 315 313 314 312 311 311 311 311 311 311 311 303 305 306 305 305 300 298 298 299 300 299 300 302 304 306 305 303 302 301 301 302 304 305 305 305 302 301
323 319 318 317 315 314 313 311 310 309 309 308 307 308 307 308 302 301 302 302 298 297 297 298 297 296 298 299 300 301 301 302 303 304 302 300 301 304 303 305 305 304 303
319 317 316 315 313 312 311 310 308 307 306 306 304 304 304 304 301 300 299 298 297 297 297 297 297 297 298 298 300 300 300 300 302 301 301 301 302 303 304 305 306 305 306
318 317 316 314 312 310 308 307 306 305 304 303 302 301 302 301 300 297 297 297 297 297 297 298 297 298 295 295 299 299 299 299 300 299 298 297 295 295 299 302 302 303 301
318 316 315 314 312 309 307 305 305 305 302 301 298 300 301 301 298 295 297 296 296 296 296 297 296 298 294 294 299 298 298 297 298 299 299 300 300 299 297 299 300 303 302
317 316 315 314 311 309 306 304 303 301 298 296 295 296 300 302 300 295 294 298 297 295 296 296 298 294 293 293 294 298 297 297 296 297 298 298 299 298 297 297 299 301 301
315 314 313 312 310 308 305 303 300 297 295 292 292 293 295 299 297 295 294 294 295 297 297 297 296 293 293 293 295 292 292 295 296 296 296 295 295 295 296 297 298 299 300
312 312 311 311 310 308 305 300 296 295 294 292 293 293 293 295 297 295 294 293 294 295 297 295 293 292 292 294 293 293 294 295 295 294 293 294 294 295 297 297 298 298 299
312 310 310 309 308 308 304 301 297 295 294 293 293 291 291 292 293 293 295 297 297 298 297 296 295 294 293 293 294 294 294 294 293 293 293 294 295 295 294 294 294 294 295
311 310 309 308 308 307 303 300 298 297 296 295 294 292 291 291 292 291 293 296 296 295 294 295 294 293 293 293 292 292 293 293 292 292 293 293 293 293 293 294 293 293 292
310 309 308 307 303 301 300 297 292 295 294 292 291 292 291 291 289 290 291 291 290 291 293 292 291 291 291 291 291 291 291 291 291 292 292 292 292 292 292 292 292 292 291
309 307 305 304 302 302 302 300 295 291 291 291 290 289 289 289 289 290 290 289 289 291 291 291 291 291 290 289 290 290 289 290 291 291 291 291 291 291 291 291 291 291 291
307 301 304 303 302 302 304 301 299 296 292 288 289 289 289 289 289 289 289 291 291 290 290 290 289 289 289 289 289 289 289 289 290 290 290 291 291 290 290 289 290 290 290
304 302 302 301 301 300 300 300 300 297 293 288 288 288 289 289 289 289 289 292 290 289 289 288 288 287 287 288 288 288 289 288 288 289 289 290 290 290 289 289 289 285 287
303 297 297 297 296 297 297 296 295 293 290 289 289 289 290 291 292 291 291 290 289 288 288 287 286 286 286 287 288 288 288 288 288 288 289 289 289 289 289 289 289 288 288
299 297 293 297 297 296 294 293 291 291 289 289 289 289 287 293 290 290 289 289 289 288 287 286 285 285 286 286 287 287 287 287 287 288 288 289 289 288 289 289 289 289 288
300 299 299 297 296 295 293 292 291 290 289 289 290 288 285 291 290 289 289 289 288 288 287 285 284 285 285 286 286 287 287 287 287 288 288 288 288 288 289 288 288 288 288
302 300 299 299 298 292 293 292 291 290 290 291 290 289 290 290 289 289 288 288 287 286 285 285 284 284 285 285 286 287 287 286 287 287 288 288 288 288 288 287 287 287 287
303 301 300 299 297 296 294 293 292 289 291 291 291 290 290 290 289 289 288 287 285 285 285 284 284 284 285 285 286 286 287 287 287 288 287 288 288 287 288 287 287 286 287
304 302 301 299 297 296 294 294 293 292 292 292 290 290 290 289 288 288 287 286 285 284 283 284 284 285 285 286 286 286 284 284 286 285 288 288 288 288 287 287 287 287 286
304 303 302 301 300 298 296 294 294 293 293 292 291 290 290 289 288 287 286 285 284 283 283 284 284 285 285 285 285 283 283 283 285 283 288 289 288 287 287 287 286 286 286
Wind_Speed
12 12 14 10 13 11 12 11 12 11 11 11 10 10 8 8 7 7 7 9 10 8 7 6 5 3 3 4 2 2 3 1 2 2 2 4 4 8 9 10 9 8 8
11 10 12 14 14 11 12 12 13 12 11 11 10 9 9 8 8 9 8 8 9 8 7 5 5 3 4 3 4 3 2 2 2 3 3 3 4 5 7 10 9 8 8
14 11 11 12 13 13 13 13 12 12 11 10 10 9 9 8 8 8 9 10 9 8 6 5 3 3 4 3 3 3 2 2 1 2 4 2 3 4 9 7 9 9 7
17 16 15 14 14 12 13 14 13 12 13 11 10 9 8 7 9 9 10 10 8 8 6 5 3 4 5 4 3 3 2 3 2 2 3 3 3 4 6 9 10 9 8
17 14 15 13 12 14 14 13 13 12 10 10 10 9 8 7 7 10 10 10 9 7 5 4 4 7 8 4 2 3 3 2 2 2 3 3 3 4 8 8 8 9 6
17 17 14 15 14 13 13 14 13 11 11 11 10 10 8 5 13 14 11 9 8 6 5 4 5 8 9 8 7 3 2 1 1 2 2 3 4 4 4 6 6 7 7
17 19 18 17 15 14 14 14 13 12 11 10 10 9 8 6 14 14 14 8 7 6 5 4 5 5 7 5 6 5 5 7 3 1 2 3 4 6 7 7 7 6 4
17 18 17 17 15 15 14 14 12 10 11 10 9 9 9 5 13 15 14 10 7 6 5 6 5 6 6 4 3 4 5 5 7 4 3 3 3 6 5 4 4 7 4
18 20 20 19 18 16 15 12 11 11 10 8 9 9 10 6 13 15 12 9 7 6 5 5 5 5 5 3 5 4 5 7 6 6 3 1 3 7 10 7 7 7 6
18 19 19 18 19 17 16 13 10 11 9 8 8 5 7 9 11 13 11 7 7 6 4 5 8 4 4 4 5 3 6 5 7 7 8 9 10 10 11 7 5 5 4
16 15 16 17 17 17 15 12 11 11 10 9 9 4 5 5 8 12 12 6 6 6 4 5 4 5 8 6 5 5 4 3 6 5 6 7 8 8 8 7 5 4 5
17 13 13 17 14 13 17 12 12 11 11 9 8 6 4 4 9 8 9 8 8 6 5 5 5 8 9 8 8 6 8 6 5 7 7 7 8 8 8 7 7 5 3
21 15 12 16 13 15 17 15 12 10 10 8 7 7 5 4 5 8 10 10 9 5 6 6 7 9 7 9 11 11 10 7 6 7 7 6 5 6 8 6 6 5 3
19 24 15 15 13 12 10 10 12 10 9 8 8 7 5 5 5 5 5 7 11 9 11 6 8 9 9 6 6 9 7 7 6 6 5 4 5 7 7 7 6 8 6
18 19 15 13 14 12 7 9 10 7 10 11 8 8 8 6 4 5 7 6 6 8 8 4 4 4 5 5 6 8 7 7 7 5 6 6 6 7 7 7 6 5 7
18 16 13 12 11 10 10 10 17 10 14 13 12 8 3 9 12 9 9 11 12 10 5 5 4 4 5 5 5 6 7 7 6 5 5 5 6 7 7 7 6 7 7
16 17 13 13 12 12 11 10 11 11 17 11 13 13 9 11 12 12 13 11 9 7 6 5 5 4 4 5 5 5 4 4 4 6 6 5 5 5 6 7 7 7 7
15 20 13 12 11 11 10 9 10 10 8 5 9 6 13 12 13 15 14 9 6 6 6 6 5 4 4 5 5 4 4 4 6 5 6 6 6 5 6 6 6 6 7
14 11 12 10 10 10 9 9 9 9 9 8 7 7 8 13 11 9 6 6 7 6 6 5 5 5 5 5 4 4 4 5 5 4 5 5 5 5 6 6 6 7 6
12 18 13 11 11 10 8 9 9 9 9 9 8 7 7 7 7 4 5 7 7 6 5 6 5 4 5 5 5 4 4 5 6 5 5 5 4 4 5 6 6 6 6
11 11 14 11 10 9 9 9 9 9 9 8 8 7 8 10 8 7 7 6 8 7 6 6 5 5 5 5 4 4 4 5 5 4 4 4 4 4 4 5 5 6 6
10 11 11 10 10 9 9 9 9 10 10 10 8 5 9 7 7 7 7 7 7 6 6 7 5 5 4 5 4 3 4 5 5 5 4 4 3 3 4 5 5 5 6
11 12 11 10 9 10 9 9 9 9 10 9 9 8 7 7 8 8 8 8 7 7 6 6 6 7 4 4 3 2 4 4 4 3 3 3 3 3 4 5 5 6 6
10 11 11 10 9 9 9 9 8 9 10 9 8 8 8 9 9 10 9 8 7 7 7 6 6 7 5 4 3 2 2 3 3 2 2 3 3 3 4 5 6 6 5
10 9 9 10 8 8 10 9 9 9 9 9 9 8 9 9 9 10 9 8 7 7 7 7 6 7 6 6 5 5 3 2 2 2 2 4 5 5 4 5 5 6 7
8 9 8 8 7 8 8 9 9 9 10 8 9 9 9 10 10 10 9 9 8 7 8 6 7 8 7 5 5 5 5 5 4 3 3 3 5 4 4 5 7 5 6
Wind_Direction
149 155 147 144 124 143 131 149 141 134 147 141 136 132 142 139 125 111 111 104 94 88 77 67 60 52 53 60 50 50 57 48 276 309 278 307 302 326 335 337 336 343 345
158 150 142 145 129 142 140 151 136 148 144 132 135 134 140 144 130 128 118 108 101 88 77 64 47 49 69 51 55 22 26 303 299 297 291 312 298 325 328 334 333 338 345
169 140 136 128 143 157 152 145 134 146 128 131 134 136 147 143 134 119 120 108 100 94 82 69 54 73 70 23 36 360 12 292 295 287 307 295 291 346 342 332 332 335 348
151 152 146 156 161 156 153 134 143 139 135 137 138 140 146 144 130 123 117 106 101 93 87 77 61 71 68 37 354 20 324 326 1 332 322 308 297 337 342 340 347 348 346
147 144 153 148 151 145 139 143 135 133 129 136 134 130 139 146 130 123 118 119 112 99 81 68 59 60 56 30 329 338 294 6 334 15 349 305 333 357 351 341 337 337 341
152 144 146 144 144 144 141 135 130 127 134 135 136 135 136 149 125 123 126 117 107 107 104 85 66 45 37 24 14 347 268 251 20 29 319 331 352 346 330 337 344 343 351
154 143 148 146 146 149 137 137 135 143 138 134 128 129 124 130 126 122 112 110 111 112 110 85 63 43 40 30 33 42 43 49 69 192 326 1 349 351 318 338 352 350 335
146 142 143 146 148 139 143 142 134 142 135 133 127 123 125 128 133 120 114 107 105 105 97 79 67 45 28 28 61 47 38 42 30 34 22 351 342 332 315 306 318 319 314
156 155 149 151 144 144 141 139 138 132 127 131 130 133 129 147 136 131 118 110 111 106 90 73 72 63 6 35 79 58 50 33 11 23 52 310 351 6 10 360 4 349 0
162 155 151 151 148 148 138 137 134 127 126 130 113 116 147 143 155 136 126 122 124 112 86 69 54 93 70 42 82 62 61 13 18 18 22 21 22 17 19 27 347 352 340
142 145 150 146 141 129 126 125 132 129 123 114 113 116 129 156 154 141 128 137 132 120 116 92 82 83 74 58 68 58 51 1 37 49 43 35 24 14 9 9 15 4 2
121 126 144 130 133 136 132 133 130 126 122 120 122 108 88 128 130 130 126 122 119 124 122 119 122 96 78 61 61 55 60 68 55 51 41 30 17 8 353 357 7 10 5
125 117 143 121 139 146 142 135 128 126 130 131 136 122 127 127 114 109 119 116 117 111 122 131 113 81 72 64 49 48 51 55 50 53 43 31 3 339 344 7 22 2 7
143 137 141 126 143 142 134 143 129 141 137 138 139 127 134 115 121 123 121 106 107 106 121 101 92 90 75 68 51 51 55 52 56 52 49 29 12 9 16 11 22 3 12
137 130 137 142 138 136 126 124 136 138 153 152 148 144 141 140 168 135 146 142 135 135 127 108 89 79 77 67 64 54 54 49 50 44 48 42 28 14 14 16 34 18 41
143 136 146 137 122 127 121 94 48 116 123 104 105 136 87 107 124 136 129 123 129 138 82 114 106 101 93 77 62 66 51 47 42 47 54 47 33 18 15 24 35 32 30
138 133 130 136 134 141 129 135 120 63 69 95 118 112 104 138 133 131 123 112 112 99 102 116 123 118 109 87 77 73 69 46 54 52 50 46 36 27 22 24 31 31 29
121 127 132 136 139 130 134 137 129 128 124 112 48 103 115 127 133 134 130 108 86 71 113 131 129 115 98 90 88 87 79 69 64 49 52 43 33 24 31 34 39 37 28
121 124 125 123 123 120 129 132 123 128 130 122 112 74 92 109 106 107 86 123 126 123 124 128 124 119 107 103 95 84 76 70 70 59 54 53 33 36 44 42 47 42 29
121 125 124 123 122 126 135 126 124 129 132 138 145 144 139 135 151 143 117 122 120 121 138 128 112 110 107 106 104 103 97 81 72 59 57 59 42 35 47 50 46 44 35
125 124 124 122 129 135 133 130 134 141 147 152 150 158 157 155 145 136 131 131 128 136 135 114 118 113 110 106 103 102 95 85 74 65 60 51 41 44 48 58 58 59 41
124 128 125 126 127 129 132 138 142 143 147 144 139 135 136 132 131 133 130 132 135 131 118 123 118 97 100 107 115 118 102 88 76 62 54 54 58 53 64 63 59 58 55
123 120 124 124 122 125 129 132 141 144 142 140 138 138 140 126 129 133 138 137 126 116 113 117 117 113 98 91 97 118 106 90 88 79 69 68 81 67 59 60 58 56 53
122 123 124 122 133 134 135 138 135 135 139 132 136 139 135 134 136 138 135 127 121 122 120 123 122 116 120 112 111 120 113 101 85 63 81 83 90 82 77 70 65 66 64
115 110 117 124 137 136 131 133 142 140 139 142 138 136 136 135 133 133 132 131 131 125 122 125 112 119 117 110 107 110 93 110 105 71 115 116 107 92 73 69 65 68 60
112 120 121 125 127 133 137 140 139 143 143 143 141 143 143 138 136 138 135 137 132 129 129 118 125 123 111 97 90 77 62 64 85 95 139 132 111 96 88 74 71 70 69